{"data":{"norad_id":48443,"epoch":"2026-05-24T19:46:31.877184Z","epoch_age_seconds":87282,"freshness":"FRESH","line1":"1 48443U 21040R   26144.82398006  .00000465  00000+0  26764-4 0  9996","line2":"2 48443  53.1579 183.9889 0001558  83.6597 276.4582 15.31707313278347","mean_motion":15.31707313,"eccentricity":0.0001558,"inclination_deg":53.1579,"raan_deg":183.9889,"arg_perigee_deg":83.6597,"mean_anomaly_deg":276.4582,"bstar":2.6764e-5,"rev_number":27834,"period_min":94.012739103505,"perigee_km":469.65114400044,"apogee_km":471.7852472794,"semimajor_km":6848.8551956399,"source":"CELESTRAK","updated_at":"2026-05-25T13:38:16.716806Z"}}